Time,TemperatureF,DewpointF,PressureIn,WindDirection,WindDirectionDegrees,WindSpeedMPH,WindSpeedGustMPH,Humidity,HourlyPrecipIn,Conditions,Clouds,dailyrainin,SoftwareType,DateUTC
2013-09-15 00:01:00,67.8,56.4,29.82,SE,133,4.6,4.6,67,0.00,,SKC,0.00,WeatherDisplay:10.37,2013-09-15 05:01:00,
2013-09-15 00:06:00,67.6,56.2,29.82,South,169,4.6,4.6,67,0.00,,SKC,0.00,WeatherDisplay:10.37,2013-09-15 05:06:00,
2013-09-15 00:11:00,67.5,56.2,29.82,SE,139,5.8,5.8,67,0.00,,SKC,0.00,WeatherDisplay:10.37,2013-09-15 05:11:00,
2013-09-15 00:16:00,67.4,56.5,29.82,South,180,4.6,4.6,68,0.00,,SKC,0.00,WeatherDisplay:10.37,2013-09-15 05:16:00,
2013-09-15 00:21:00,67.3,56.4,29.82,SSE,154,4.2,4.2,68,0.00,,SKC,0.00,WeatherDisplay:10.37,2013-09-15 05:21:00,
2013-09-15 00:26:00,67.4,56.1,29.82,SE,127,4.6,4.6,67,0.00,,SKC,0.00,WeatherDisplay:10.37,2013-09-15 05:26:00,
2013-09-15 00:31:00,67.5,56.2,29.82,SE,131,6.9,6.9,67,0.00,,SKC,0.00,WeatherDisplay:10.37,2013-09-15 05:31:00,
2013-09-15 00:36:00,67.5,56.2,29.82,SE,126,5.8,5.8,67,0.00,,SKC,0.00,WeatherDisplay:10.37,2013-09-15 05:36:00,
2013-09-15 00:41:00,67.5,55.7,29.82,SSE,162,4.6,4.6,66,0.00,,SKC,0.00,WeatherDisplay:10.37,2013-09-15 05:41:00,
2013-09-15 00:46:00,67.6,55.8,29.82,ESE,111,5.3,5.3,66,0.00,,SKC,0.00,WeatherDisplay:10.37,2013-09-15 05:46:00,
2013-09-15 00:51:00,67.6,55.8,29.82,SSE,150,4.6,4.6,66,0.00,,SKC,0.00,WeatherDisplay:10.37,2013-09-15 05:51:00,
2013-09-15 00:56:00,67.6,55.8,29.82,SE,143,3.5,3.5,66,0.00,,SKC,0.00,WeatherDisplay:10.37,2013-09-15 05:56:00,
2013-09-15 01:01:00,67.5,55.7,29.82,SE,138,4.6,4.6,66,0.00,,SKC,0.00,WeatherDisplay:10.37,2013-09-15 06:01:00,
2013-09-15 01:06:00,67.4,55.6,29.82,SSE,150,3.5,3.5,66,0.00,,SKC,0.00,WeatherDisplay:10.37,2013-09-15 06:06:00,
2013-09-15 01:11:00,67.3,55.5,29.82,SE,131,1.2,1.2,66,0.00,,SKC,0.00,WeatherDisplay:10.37,2013-09-15 06:11:00,
2013-09-15 01:16:00,67.2,55.9,29.82,SE,134,2.3,2.3,67,0.00,,SKC,0.00,WeatherDisplay:10.37,2013-09-15 06:16:00,
2013-09-15 01:22:00,67.1,55.8,29.82,ESE,120,3.2,3.2,67,0.00,,SKC,0.00,WeatherDisplay:10.37,2013-09-15 06:22:00,
2013-09-15 01:27:00,67.1,55.8,29.82,ESE,118,2.1,2.1,67,0.00,,SKC,0.00,WeatherDisplay:10.37,2013-09-15 06:27:00,
2013-09-15 01:32:00,67.1,55.8,29.82,SE,136,2.3,2.3,67,0.00,,SKC,0.00,WeatherDisplay:10.37,2013-09-15 06:32:00,
2013-09-15 01:37:00,67.0,55.7,29.82,SE,129,2.3,2.3,67,0.00,,SKC,0.00,WeatherDisplay:10.37,2013-09-15 06:37:00,
2013-09-15 01:42:00,66.8,55.5,29.82,South,181,1.2,1.2,67,0.00,,SKC,0.00,WeatherDisplay:10.37,2013-09-15 06:42:00,
2013-09-15 01:47:00,66.5,55.6,29.82,SE,130,1.2,1.2,68,0.00,,SKC,0.00,WeatherDisplay:10.37,2013-09-15 06:47:00,
2013-09-15 01:52:00,66.3,55.4,29.82,SE,130,1.2,1.2,68,0.00,,SKC,0.00,WeatherDisplay:10.37,2013-09-15 06:52:00,
2013-09-15 01:57:00,66.1,55.6,29.82,SE,143,2.3,2.3,69,0.00,,SKC,0.00,WeatherDisplay:10.37,2013-09-15 06:57:00,
2013-09-15 02:02:00,65.9,55.4,29.82,SE,141,1.2,1.2,69,0.00,,SKC,0.00,WeatherDisplay:10.37,2013-09-15 07:02:00,
2013-09-15 02:07:00,65.8,55.7,29.82,SE,131,1.2,0.0,70,0.00,,SKC,0.00,WeatherDisplay:10.37,2013-09-15 07:07:00,
2013-09-15 02:12:00,65.7,55.6,29.82,SE,133,2.1,2.1,70,0.00,,SKC,0.00,WeatherDisplay:10.37,2013-09-15 07:12:00,
2013-09-15 02:17:00,65.6,55.9,29.82,SE,130,1.2,1.2,71,0.00,,SKC,0.00,WeatherDisplay:10.37,2013-09-15 07:17:00,
2013-09-15 02:22:00,65.6,55.9,29.82,SE,131,0.0,0.0,71,0.00,,SKC,0.00,WeatherDisplay:10.37,2013-09-15 07:22:00,
2013-09-15 02:27:00,65.5,55.8,29.82,SE,126,1.1,1.1,71,0.00,,SKC,0.00,WeatherDisplay:10.37,2013-09-15 07:27:00,
2013-09-15 02:32:00,65.6,55.9,29.82,SE,125,1.2,0.0,71,0.00,,SKC,0.00,WeatherDisplay:10.37,2013-09-15 07:32:00,
2013-09-15 02:37:00,65.6,55.9,29.82,SSE,151,0.0,0.0,71,0.00,,SKC,0.00,WeatherDisplay:10.37,2013-09-15 07:37:00,
2013-09-15 02:42:00,65.7,56.4,29.81,SE,142,1.2,0.0,72,0.00,,SKC,0.00,WeatherDisplay:10.37,2013-09-15 07:42:00,
2013-09-15 02:47:00,65.8,56.1,29.81,SE,144,1.2,1.2,71,0.00,,SKC,0.00,WeatherDisplay:10.37,2013-09-15 07:47:00,
2013-09-15 02:52:00,66.0,56.7,29.81,SSE,165,0.0,0.0,72,0.00,,SKC,0.00,WeatherDisplay:10.37,2013-09-15 07:52:00,
2013-09-15 02:57:00,66.0,56.7,29.81,SSE,156,2.3,2.3,72,0.00,,SKC,0.00,WeatherDisplay:10.37,2013-09-15 07:57:00,
2013-09-15 03:02:00,66.0,56.7,29.80,SSE,166,2.3,2.3,72,0.00,,SKC,0.00,WeatherDisplay:10.37,2013-09-15 08:02:00,
2013-09-15 03:07:00,66.1,57.2,29.80,South,172,1.2,1.2,73,0.00,,SKC,0.00,WeatherDisplay:10.37,2013-09-15 08:07:00,
2013-09-15 03:12:00,66.2,57.3,29.80,SSE,159,2.3,2.3,73,0.00,,SKC,0.00,WeatherDisplay:10.37,2013-09-15 08:12:00,
2013-09-15 03:17:00,66.3,57.4,29.80,SSE,158,3.2,3.2,73,0.00,,SKC,0.00,WeatherDisplay:10.37,2013-09-15 08:17:00,
2013-09-15 03:22:00,66.4,57.9,29.80,South,169,2.3,2.3,74,0.00,,SKC,0.00,WeatherDisplay:10.37,2013-09-15 08:22:00,
2013-09-15 03:27:00,66.5,58.0,29.80,SE,143,2.3,2.3,74,0.00,,SKC,0.00,WeatherDisplay:10.37,2013-09-15 08:27:00,
2013-09-15 03:32:00,66.6,58.1,29.80,SSE,159,2.3,2.3,74,0.00,,SKC,0.00,WeatherDisplay:10.37,2013-09-15 08:32:00,
2013-09-15 03:37:00,66.7,58.5,29.79,ESE,114,4.2,4.2,75,0.00,,SKC,0.00,WeatherDisplay:10.37,2013-09-15 08:37:00,
2013-09-15 03:42:00,66.9,58.7,29.79,SE,139,2.3,2.3,75,0.00,,SKC,0.00,WeatherDisplay:10.37,2013-09-15 08:42:00,
2013-09-15 03:47:00,67.2,59.0,29.79,ESE,110,3.5,3.5,75,0.00,,SKC,0.00,WeatherDisplay:10.37,2013-09-15 08:47:00,
2013-09-15 03:52:00,67.3,59.1,29.79,SE,143,2.3,2.3,75,0.00,,SKC,0.00,WeatherDisplay:10.37,2013-09-15 08:52:00,
2013-09-15 03:57:00,67.5,59.3,29.79,SSE,152,2.1,2.1,75,0.00,,SKC,0.00,WeatherDisplay:10.37,2013-09-15 08:57:00,
2013-09-15 04:02:00,67.6,59.4,29.79,SE,146,3.5,3.5,75,0.00,,SKC,0.00,WeatherDisplay:10.37,2013-09-15 09:02:00,
2013-09-15 04:07:00,67.6,59.4,29.79,ESE,123,2.3,2.3,75,0.00,,SKC,0.00,WeatherDisplay:10.37,2013-09-15 09:07:00,
2013-09-15 04:12:00,67.5,59.3,29.79,SE,136,2.3,2.3,75,0.00,,SKC,0.00,WeatherDisplay:10.37,2013-09-15 09:12:00,
2013-09-15 04:17:00,67.5,59.7,29.79,SE,138,1.2,0.0,76,0.00,,SKC,0.00,WeatherDisplay:10.37,2013-09-15 09:17:00,
2013-09-15 04:22:00,67.5,59.7,29.79,SW,217,1.2,0.0,76,0.00,,SKC,0.00,WeatherDisplay:10.37,2013-09-15 09:22:00,
2013-09-15 04:27:00,67.5,59.7,29.78,SE,146,1.2,1.2,76,0.00,,SKC,0.00,WeatherDisplay:10.37,2013-09-15 09:27:00,
2013-09-15 04:32:00,67.4,59.6,29.79,SE,144,0.0,0.0,76,0.00,,SKC,0.00,WeatherDisplay:10.37,2013-09-15 09:32:00,
2013-09-15 04:37:00,67.3,59.8,29.79,SSE,160,0.0,0.0,77,0.00,,SKC,0.00,WeatherDisplay:10.37,2013-09-15 09:37:00,
2013-09-15 04:42:00,67.5,60.0,29.81,WNW,300,3.5,3.5,77,0.00,,SKC,0.00,WeatherDisplay:10.37,2013-09-15 09:42:00,
2013-09-15 04:47:00,67.7,60.2,29.80,NW,309,2.3,0.0,77,0.00,,SKC,0.00,WeatherDisplay:10.37,2013-09-15 09:47:00,
2013-09-15 04:52:00,68.0,60.5,29.81,WNW,287,1.2,1.2,77,0.00,,SKC,0.00,WeatherDisplay:10.37,2013-09-15 09:52:00,
2013-09-15 04:57:00,68.1,60.6,29.81,WNW,283,1.2,1.2,77,0.00,,SKC,0.00,WeatherDisplay:10.37,2013-09-15 09:57:00,
2013-09-15 05:02:00,68.3,61.2,29.81,WNW,300,2.3,2.3,78,0.00,,SKC,0.00,WeatherDisplay:10.37,2013-09-15 10:02:00,
2013-09-15 05:07:00,68.5,61.0,29.81,WSW,256,3.5,3.5,77,0.00,,SKC,0.00,WeatherDisplay:10.37,2013-09-15 10:07:00,
2013-09-15 05:12:00,68.6,61.1,29.81,WSW,252,2.3,2.3,77,0.00,,SKC,0.00,WeatherDisplay:10.37,2013-09-15 10:12:00,
2013-09-15 05:17:00,68.7,61.2,29.81,WSW,253,4.6,4.6,77,0.00,,SKC,0.00,WeatherDisplay:10.37,2013-09-15 10:17:00,
2013-09-15 05:22:00,69.0,61.5,29.81,SW,218,4.6,4.6,77,0.00,,SKC,0.00,WeatherDisplay:10.37,2013-09-15 10:22:00,
2013-09-15 05:27:00,69.2,61.7,29.82,NW,307,6.4,6.4,77,0.00,,SKC,0.00,WeatherDisplay:10.37,2013-09-15 10:27:00,
2013-09-15 05:32:00,69.3,61.8,29.82,WSW,245,2.3,2.3,77,0.00,,SKC,0.00,WeatherDisplay:10.37,2013-09-15 10:32:00,
2013-09-15 05:37:00,69.3,62.1,29.82,SSW,206,5.8,5.8,78,0.00,,SKC,0.00,WeatherDisplay:10.37,2013-09-15 10:37:00,
2013-09-15 05:42:00,69.5,62.0,29.82,WSW,252,1.2,1.2,77,0.00,,SKC,0.00,WeatherDisplay:10.37,2013-09-15 10:42:00,
2013-09-15 05:47:00,69.5,62.0,29.83,WNW,290,2.3,2.3,77,0.00,,SKC,0.00,WeatherDisplay:10.37,2013-09-15 10:47:00,
2013-09-15 05:52:00,69.4,61.9,29.83,SW,223,4.2,4.2,77,0.00,,SKC,0.00,WeatherDisplay:10.37,2013-09-15 10:52:00,
2013-09-15 05:57:00,69.4,62.2,29.83,SW,220,3.5,3.5,78,0.00,,SKC,0.00,WeatherDisplay:10.37,2013-09-15 10:57:00,
2013-09-15 06:02:00,69.5,62.3,29.84,NW,304,6.9,6.9,78,0.00,,SKC,0.00,WeatherDisplay:10.37,2013-09-15 11:02:00,
2013-09-15 06:07:00,69.4,62.2,29.84,West,276,2.3,2.3,78,0.00,,SKC,0.00,WeatherDisplay:10.37,2013-09-15 11:07:00,
2013-09-15 06:12:00,69.2,62.0,29.84,NW,318,3.5,3.5,78,0.00,,SKC,0.00,WeatherDisplay:10.37,2013-09-15 11:12:00,
2013-09-15 06:17:00,69.0,62.2,29.84,NW,307,4.6,4.6,79,0.00,,SKC,0.00,WeatherDisplay:10.37,2013-09-15 11:17:00,
2013-09-15 06:22:00,68.6,62.2,29.84,WNW,299,2.1,2.1,80,0.00,,SKC,0.00,WeatherDisplay:10.37,2013-09-15 11:22:00,
2013-09-15 06:27:00,68.4,62.3,29.83,WNW,299,0.0,0.0,81,0.00,,SKC,0.00,WeatherDisplay:10.37,2013-09-15 11:27:00,
2013-09-15 06:32:00,68.1,62.4,29.84,WNW,299,0.0,0.0,82,0.00,,SKC,0.00,WeatherDisplay:10.37,2013-09-15 11:32:00,
2013-09-15 06:37:00,67.9,62.2,29.84,SSW,207,1.2,1.2,82,0.00,,SKC,0.00,WeatherDisplay:10.37,2013-09-15 11:37:00,
2013-09-15 06:42:00,67.8,62.1,29.84,SSW,208,0.0,0.0,82,0.00,,SKC,0.00,WeatherDisplay:10.37,2013-09-15 11:42:00,
2013-09-15 06:47:00,67.7,62.3,29.83,SSW,208,0.0,0.0,83,0.00,,SKC,0.00,WeatherDisplay:10.37,2013-09-15 11:47:00,
2013-09-15 06:52:00,67.6,62.3,29.83,SSW,210,0.0,0.0,83,0.00,,SKC,0.00,WeatherDisplay:10.37,2013-09-15 11:52:00,
2013-09-15 06:58:00,67.5,62.2,29.83,SSW,210,0.0,0.0,83,0.00,,SKC,0.00,WeatherDisplay:10.37,2013-09-15 11:58:00,
2013-09-15 07:03:00,67.4,62.4,29.83,SSW,210,0.0,0.0,84,0.00,,SKC,0.00,WeatherDisplay:10.37,2013-09-15 12:03:00,
2013-09-15 07:08:00,67.5,62.5,29.83,SW,219,1.1,1.1,84,0.00,,SKC,0.00,WeatherDisplay:10.37,2013-09-15 12:08:00,
2013-09-15 07:13:00,67.5,62.5,29.83,SSE,165,1.2,1.2,84,0.00,,SKC,0.00,WeatherDisplay:10.37,2013-09-15 12:13:00,
2013-09-15 07:18:00,67.2,62.2,29.83,South,173,2.1,2.1,84,0.00,,SKC,0.00,WeatherDisplay:10.37,2013-09-15 12:18:00,
2013-09-15 07:23:00,66.9,62.2,29.83,SSE,149,0.0,0.0,85,0.00,,SKC,0.00,WeatherDisplay:10.37,2013-09-15 12:23:00,
2013-09-15 07:28:00,66.7,62.0,29.83,SE,125,0.0,0.0,85,0.00,,SKC,0.00,WeatherDisplay:10.37,2013-09-15 12:28:00,
2013-09-15 07:33:00,66.7,62.0,29.83,SE,131,2.3,2.3,85,0.00,,SKC,0.00,WeatherDisplay:10.37,2013-09-15 12:33:00,
2013-09-15 07:38:00,66.5,62.2,29.83,SE,134,2.3,2.3,86,0.00,,SKC,0.00,WeatherDisplay:10.37,2013-09-15 12:38:00,
2013-09-15 07:43:00,66.4,62.4,29.83,SSE,161,2.3,2.3,87,0.00,,SKC,0.00,WeatherDisplay:10.37,2013-09-15 12:43:00,
2013-09-15 07:48:00,66.3,62.3,29.83,South,183,1.2,1.2,87,0.00,,SKC,0.00,WeatherDisplay:10.37,2013-09-15 12:48:00,
2013-09-15 07:53:00,66.4,62.7,29.84,West,266,0.0,0.0,88,0.00,,SKC,0.00,WeatherDisplay:10.37,2013-09-15 12:53:00,
2013-09-15 07:58:00,66.6,62.9,29.84,WNW,298,1.2,1.2,88,0.00,,SKC,0.00,WeatherDisplay:10.37,2013-09-15 12:58:00,
2013-09-15 08:03:00,66.8,62.8,29.85,West,277,2.3,2.3,87,0.00,,SKC,0.00,WeatherDisplay:10.37,2013-09-15 13:03:00,
2013-09-15 08:08:00,67.1,63.1,29.85,WNW,285,2.3,2.3,87,0.00,,SKC,0.00,WeatherDisplay:10.37,2013-09-15 13:08:00,
2013-09-15 08:13:00,67.3,63.0,29.84,NW,309,3.2,3.2,86,0.00,,SKC,0.00,WeatherDisplay:10.37,2013-09-15 13:13:00,
2013-09-15 08:18:00,67.6,63.3,29.84,NW,319,4.6,4.6,86,0.00,,SKC,0.00,WeatherDisplay:10.37,2013-09-15 13:18:00,
2013-09-15 08:23:00,67.7,63.7,29.84,NW,310,3.5,3.5,87,0.00,,SKC,0.00,WeatherDisplay:10.37,2013-09-15 13:23:00,
2013-09-15 08:28:00,67.7,64.0,29.85,NW,305,4.6,4.6,88,0.00,,SKC,0.00,WeatherDisplay:10.37,2013-09-15 13:28:00,
2013-09-15 08:33:00,67.8,64.1,29.85,WNW,301,5.8,5.8,88,0.00,,SKC,0.00,WeatherDisplay:10.37,2013-09-15 13:33:00,
2013-09-15 08:38:00,67.8,64.8,29.85,NW,314,3.5,3.5,90,0.01,RA,SKC,0.01,WeatherDisplay:10.37,2013-09-15 13:38:00,
2013-09-15 08:43:00,67.8,64.8,29.86,WNW,301,4.6,4.6,90,0.02,RA,SKC,0.02,WeatherDisplay:10.37,2013-09-15 13:43:00,
2013-09-15 08:48:00,67.8,65.1,29.86,WNW,298,6.9,6.9,91,0.02,RA,SKC,0.02,WeatherDisplay:10.37,2013-09-15 13:48:00,
2013-09-15 08:53:00,67.9,65.5,29.87,NW,319,6.9,6.9,92,0.02,,SKC,0.02,WeatherDisplay:10.37,2013-09-15 13:53:00,
2013-09-15 08:58:00,67.7,64.3,29.88,NW,317,11.5,11.5,89,0.02,,SKC,0.02,WeatherDisplay:10.37,2013-09-15 13:58:00,
2013-09-15 09:03:00,67.1,63.4,29.88,NW,316,12.7,12.7,88,0.02,,SKC,0.02,WeatherDisplay:10.37,2013-09-15 14:03:00,
2013-09-15 09:08:00,66.5,63.2,29.89,NW,308,10.4,10.4,89,0.02,,SKC,0.02,WeatherDisplay:10.37,2013-09-15 14:08:00,
2013-09-15 09:13:00,66.3,63.0,29.90,NW,310,10.6,10.6,89,0.02,,SKC,0.02,WeatherDisplay:10.37,2013-09-15 14:13:00,
2013-09-15 09:18:00,66.2,62.9,29.91,NW,304,11.5,11.5,89,0.02,,SKC,0.02,WeatherDisplay:10.37,2013-09-15 14:18:00,
2013-09-15 09:23:00,66.0,62.7,29.91,NW,309,15.0,15.0,89,0.02,,SKC,0.02,WeatherDisplay:10.37,2013-09-15 14:23:00,
2013-09-15 09:28:00,65.8,62.1,29.91,NNW,328,10.6,10.6,88,0.02,,SKC,0.02,WeatherDisplay:10.37,2013-09-15 14:28:00,
2013-09-15 09:33:00,65.5,62.2,29.91,NW,321,9.5,9.5,89,0.02,,SKC,0.02,WeatherDisplay:10.37,2013-09-15 14:33:00,
2013-09-15 09:38:00,65.4,62.1,29.92,WNW,298,8.1,8.1,89,0.01,,SKC,0.02,WeatherDisplay:10.37,2013-09-15 14:38:00,
2013-09-15 09:43:00,65.2,61.9,29.92,North,358,9.5,9.5,89,0.00,,SKC,0.02,WeatherDisplay:10.37,2013-09-15 14:43:00,
2013-09-15 09:48:00,65.1,61.8,29.92,NW,312,11.5,11.5,89,0.01,RA,SKC,0.03,WeatherDisplay:10.37,2013-09-15 14:48:00,
2013-09-15 09:53:00,65.1,61.8,29.92,NW,308,13.8,13.8,89,0.01,RA,SKC,0.03,WeatherDisplay:10.37,2013-09-15 14:53:00,
2013-09-15 09:58:00,65.0,62.0,29.92,NNW,343,8.5,8.5,90,0.01,,SKC,0.03,WeatherDisplay:10.37,2013-09-15 14:58:00,
2013-09-15 10:03:00,64.8,61.8,29.93,WNW,300,10.6,10.6,90,0.02,RA,SKC,0.04,WeatherDisplay:10.37,2013-09-15 15:03:00,
2013-09-15 10:08:00,64.7,61.7,29.92,NNW,328,7.4,7.4,90,0.02,RA,SKC,0.04,WeatherDisplay:10.37,2013-09-15 15:08:00,
2013-09-15 10:13:00,64.7,61.7,29.92,NW,323,9.2,9.2,90,0.03,RA,SKC,0.05,WeatherDisplay:10.37,2013-09-15 15:13:00,
2013-09-15 10:18:00,64.7,61.7,29.92,NNW,338,9.5,9.5,90,0.03,RA,SKC,0.05,WeatherDisplay:10.37,2013-09-15 15:18:00,
2013-09-15 10:23:00,64.6,61.9,29.92,NNW,340,8.5,8.5,91,0.04,RA,SKC,0.07,WeatherDisplay:10.37,2013-09-15 15:23:00,
2013-09-15 10:28:00,64.5,61.8,29.91,NNE,16,9.2,9.2,91,0.04,RA,SKC,0.07,WeatherDisplay:10.37,2013-09-15 15:28:00,
2013-09-15 10:33:00,64.4,61.7,29.91,NNW,333,9.5,9.5,91,0.04,,SKC,0.07,WeatherDisplay:10.37,2013-09-15 15:33:00,
2013-09-15 10:39:00,64.5,61.8,29.91,North,1,6.9,6.9,91,0.04,,SKC,0.07,WeatherDisplay:10.37,2013-09-15 15:39:00,
2013-09-15 10:44:00,64.6,61.9,29.92,NNW,330,9.5,9.5,91,0.04,,SKC,0.07,WeatherDisplay:10.37,2013-09-15 15:44:00,
2013-09-15 10:49:00,64.7,62.0,29.92,WNW,297,9.2,9.2,91,0.03,,SKC,0.07,WeatherDisplay:10.37,2013-09-15 15:49:00,
2013-09-15 10:54:00,64.8,62.1,29.93,NNW,334,8.5,8.5,91,0.03,,SKC,0.07,WeatherDisplay:10.37,2013-09-15 15:54:00,
2013-09-15 10:59:00,64.7,62.0,29.93,WNW,296,5.8,5.8,91,0.03,,SKC,0.07,WeatherDisplay:10.37,2013-09-15 15:59:00,
2013-09-15 11:04:00,64.8,62.4,29.94,NW,304,3.5,3.5,92,0.02,,SKC,0.07,WeatherDisplay:10.37,2013-09-15 16:04:00,
2013-09-15 11:09:00,64.9,62.2,29.93,NW,326,6.9,6.9,91,0.02,,SKC,0.07,WeatherDisplay:10.37,2013-09-15 16:09:00,
2013-09-15 11:14:00,65.0,62.0,29.93,North,354,6.9,6.9,90,0.01,,SKC,0.07,WeatherDisplay:10.37,2013-09-15 16:14:00,
2013-09-15 11:19:00,65.1,62.1,29.93,NNW,327,7.4,7.4,90,0.01,,SKC,0.07,WeatherDisplay:10.37,2013-09-15 16:19:00,
2013-09-15 11:24:00,65.3,62.3,29.93,NW,317,8.1,8.1,90,0.00,,SKC,0.07,WeatherDisplay:10.37,2013-09-15 16:24:00,
2013-09-15 11:29:00,65.6,62.3,29.94,NW,324,9.5,9.5,89,0.00,,SKC,0.07,WeatherDisplay:10.37,2013-09-15 16:29:00,
2013-09-15 11:34:00,65.7,62.4,29.94,North,1,8.5,8.5,89,0.00,,SKC,0.07,WeatherDisplay:10.37,2013-09-15 16:34:00,
2013-09-15 11:39:00,65.8,62.5,29.94,NNW,332,6.9,6.9,89,0.00,,SKC,0.07,WeatherDisplay:10.37,2013-09-15 16:39:00,
2013-09-15 11:44:00,65.7,61.7,29.95,NW,316,9.5,9.5,87,0.00,,SKC,0.07,WeatherDisplay:10.37,2013-09-15 16:44:00,
2013-09-15 11:49:00,65.8,61.8,29.95,NW,326,11.7,11.7,87,0.00,,SKC,0.07,WeatherDisplay:10.37,2013-09-15 16:49:00,
2013-09-15 11:54:00,65.8,61.8,29.95,NNW,328,9.5,9.5,87,0.00,,SKC,0.07,WeatherDisplay:10.37,2013-09-15 16:54:00,
2013-09-15 11:59:00,65.8,61.8,29.95,NNW,342,9.5,9.5,87,0.00,,SKC,0.07,WeatherDisplay:10.37,2013-09-15 16:59:00,
2013-09-15 12:04:00,65.8,61.8,29.95,North,351,9.5,9.5,87,0.00,,SKC,0.07,WeatherDisplay:10.37,2013-09-15 17:04:00,
2013-09-15 12:09:00,65.9,61.6,29.95,North,2,10.6,10.6,86,0.00,,SKC,0.07,WeatherDisplay:10.37,2013-09-15 17:09:00,
2013-09-15 12:14:00,65.9,62.2,29.96,NNW,346,7.4,7.4,88,0.00,,SKC,0.07,WeatherDisplay:10.37,2013-09-15 17:14:00,
2013-09-15 12:19:00,65.9,61.6,29.96,North,354,12.7,12.7,86,0.00,,SKC,0.07,WeatherDisplay:10.37,2013-09-15 17:19:00,
2013-09-15 12:24:00,65.9,61.6,29.96,NNW,332,11.5,11.5,86,0.00,,SKC,0.07,WeatherDisplay:10.37,2013-09-15 17:24:00,
2013-09-15 12:29:00,66.0,61.7,29.96,NE,56,13.8,13.8,86,0.00,,SKC,0.07,WeatherDisplay:10.37,2013-09-15 17:29:00,
2013-09-15 12:34:00,66.2,61.9,29.96,NW,324,6.9,6.9,86,0.00,,SKC,0.07,WeatherDisplay:10.37,2013-09-15 17:34:00,
2013-09-15 12:39:00,66.6,61.9,29.96,NW,321,10.6,10.6,85,0.00,,SKC,0.07,WeatherDisplay:10.37,2013-09-15 17:39:00,
2013-09-15 12:44:00,66.7,62.0,29.97,North,7,8.5,8.5,85,0.00,,SKC,0.07,WeatherDisplay:10.37,2013-09-15 17:44:00,
2013-09-15 12:49:00,66.8,61.8,29.96,North,351,11.7,11.7,84,0.00,,SKC,0.07,WeatherDisplay:10.37,2013-09-15 17:49:00,
2013-09-15 12:54:00,66.9,61.9,29.96,NNW,341,9.5,9.5,84,0.00,,SKC,0.07,WeatherDisplay:10.37,2013-09-15 17:54:00,
2013-09-15 12:59:00,67.1,61.8,29.96,NW,308,11.7,11.7,83,0.00,,SKC,0.07,WeatherDisplay:10.37,2013-09-15 17:59:00,
2013-09-15 13:04:00,67.1,62.1,29.96,NNW,339,11.7,11.7,84,0.00,,SKC,0.07,WeatherDisplay:10.37,2013-09-15 18:04:00,
2013-09-15 13:09:00,66.9,61.6,29.97,NNE,12,16.1,16.1,83,0.00,,SKC,0.07,WeatherDisplay:10.37,2013-09-15 18:09:00,
2013-09-15 13:14:00,66.9,61.9,29.97,NW,323,8.5,8.5,84,0.00,,SKC,0.07,WeatherDisplay:10.37,2013-09-15 18:14:00,
2013-09-15 13:19:00,66.9,61.6,29.97,NNW,338,10.6,10.6,83,0.00,,SKC,0.07,WeatherDisplay:10.37,2013-09-15 18:19:00,
2013-09-15 13:24:00,66.9,61.6,29.97,NNW,333,13.8,13.8,83,0.00,,SKC,0.07,WeatherDisplay:10.37,2013-09-15 18:24:00,
2013-09-15 13:29:00,66.9,61.9,29.98,NNW,336,12.7,12.7,84,0.00,,SKC,0.07,WeatherDisplay:10.37,2013-09-15 18:29:00,
2013-09-15 13:34:00,66.8,61.8,29.98,NW,311,11.7,11.7,84,0.00,,SKC,0.07,WeatherDisplay:10.37,2013-09-15 18:34:00,
2013-09-15 13:39:00,66.8,61.5,29.99,NW,321,11.5,11.5,83,0.00,,SKC,0.07,WeatherDisplay:10.37,2013-09-15 18:39:00,
2013-09-15 13:44:00,66.7,61.4,29.99,NNE,23,12.7,12.7,83,0.00,,SKC,0.07,WeatherDisplay:10.37,2013-09-15 18:44:00,
2013-09-15 13:49:00,66.7,61.4,29.98,North,6,10.4,10.4,83,0.00,,SKC,0.07,WeatherDisplay:10.37,2013-09-15 18:49:00,
2013-09-15 13:54:00,66.9,61.6,29.99,North,7,6.9,6.9,83,0.00,,SKC,0.07,WeatherDisplay:10.37,2013-09-15 18:54:00,
2013-09-15 13:59:00,66.9,61.2,29.99,NNE,25,13.8,13.8,82,0.00,,SKC,0.07,WeatherDisplay:10.37,2013-09-15 18:59:00,
2013-09-15 14:04:00,66.7,61.4,30.00,NW,323,9.5,9.5,83,0.00,,SKC,0.07,WeatherDisplay:10.37,2013-09-15 19:04:00,
2013-09-15 14:09:00,66.2,61.2,30.00,NNE,12,7.4,7.4,84,0.00,,SKC,0.07,WeatherDisplay:10.37,2013-09-15 19:09:00,
2013-09-15 14:14:00,65.8,60.8,30.00,NNW,330,10.6,10.6,84,0.00,,SKC,0.07,WeatherDisplay:10.37,2013-09-15 19:14:00,
2013-09-15 14:18:00,65.7,60.7,30.00,NNW,347,9.5,9.5,84,0.00,,SKC,0.07,WeatherDisplay:10.37,2013-09-15 19:18:00,
2013-09-15 14:23:00,65.5,60.9,29.99,WNW,300,10.6,10.6,85,0.00,,SKC,0.07,WeatherDisplay:10.37,2013-09-15 19:23:00,
2013-09-15 14:28:00,65.6,61.0,29.99,North,6,11.7,11.7,85,0.00,,SKC,0.07,WeatherDisplay:10.37,2013-09-15 19:28:00,
2013-09-15 14:33:00,65.8,60.5,29.99,NNW,328,12.7,12.7,83,0.00,,SKC,0.07,WeatherDisplay:10.37,2013-09-15 19:33:00,
2013-09-15 14:38:00,65.9,60.6,30.00,NW,319,7.4,7.4,83,0.00,,SKC,0.07,WeatherDisplay:10.37,2013-09-15 19:38:00,
2013-09-15 14:43:00,66.1,60.8,30.00,NNW,346,8.5,8.5,83,0.00,,SKC,0.07,WeatherDisplay:10.37,2013-09-15 19:43:00,
2013-09-15 14:48:00,66.2,60.2,30.00,North,352,13.8,13.8,81,0.00,,SKC,0.07,WeatherDisplay:10.37,2013-09-15 19:48:00,
2013-09-15 14:53:00,66.2,60.2,30.00,NNE,13,9.2,9.2,81,0.00,,SKC,0.07,WeatherDisplay:10.37,2013-09-15 19:53:00,
2013-09-15 14:58:00,66.3,60.3,30.00,North,357,6.9,6.9,81,0.00,,SKC,0.07,WeatherDisplay:10.37,2013-09-15 19:58:00,
2013-09-15 15:03:00,66.3,59.9,30.00,North,1,8.1,8.1,80,0.00,CLR,SKC,0.07,WeatherDisplay:10.37,2013-09-15 20:03:00,
2013-09-15 15:08:00,66.2,60.2,30.00,North,353,8.5,8.5,81,0.00,CLR,SKC,0.07,WeatherDisplay:10.37,2013-09-15 20:08:00,
2013-09-15 15:13:00,66.1,60.4,30.01,NNW,339,10.6,10.6,82,0.00,CLR,SKC,0.07,WeatherDisplay:10.37,2013-09-15 20:13:00,
2013-09-15 15:18:00,66.0,60.3,30.00,NNE,19,11.5,11.5,82,0.00,CLR,SKC,0.07,WeatherDisplay:10.37,2013-09-15 20:18:00,
2013-09-15 15:23:00,65.8,60.8,29.99,NE,41,6.9,6.9,84,0.00,CLR,SKC,0.07,WeatherDisplay:10.37,2013-09-15 20:23:00,
2013-09-15 15:28:00,65.5,60.9,29.99,NW,307,8.5,8.5,85,0.00,CLR,SKC,0.07,WeatherDisplay:10.37,2013-09-15 20:28:00,
2013-09-15 15:33:00,65.4,60.8,29.98,NNE,14,10.6,10.6,85,0.00,CLR,SKC,0.07,WeatherDisplay:10.37,2013-09-15 20:33:00,
2013-09-15 15:38:00,65.2,60.9,29.98,NE,53,8.5,8.5,86,0.00,CLR,SKC,0.07,WeatherDisplay:10.37,2013-09-15 20:38:00,
2013-09-15 15:43:00,65.2,61.2,29.98,SE,127,6.9,6.9,87,0.00,CLR,SKC,0.07,WeatherDisplay:10.37,2013-09-15 20:43:00,
2013-09-15 15:48:00,65.5,61.2,30.00,North,354,8.5,8.5,86,0.00,CLR,SKC,0.07,WeatherDisplay:10.37,2013-09-15 20:48:00,
2013-09-15 15:53:00,65.7,60.4,30.01,NNW,330,7.4,7.4,83,0.00,CLR,SKC,0.07,WeatherDisplay:10.37,2013-09-15 20:53:00,
2013-09-15 15:58:00,65.7,60.4,30.01,North,7,6.4,6.4,83,0.00,CLR,SKC,0.07,WeatherDisplay:10.37,2013-09-15 20:58:00,
2013-09-15 16:03:00,65.6,60.3,30.01,NE,37,10.6,10.6,83,0.00,CLR,SKC,0.07,WeatherDisplay:10.37,2013-09-15 21:03:00,
2013-09-15 16:08:00,65.5,59.9,30.01,NE,41,8.1,8.1,82,0.00,CLR,SKC,0.07,WeatherDisplay:10.37,2013-09-15 21:08:00,
2013-09-15 16:13:00,65.6,60.0,30.01,NE,51,6.9,6.9,82,0.00,CLR,SKC,0.07,WeatherDisplay:10.37,2013-09-15 21:13:00,
2013-09-15 16:18:00,65.6,59.6,30.01,NNW,346,8.5,8.5,81,0.00,CLR,SKC,0.07,WeatherDisplay:10.37,2013-09-15 21:18:00,
2013-09-15 16:23:00,65.6,59.3,30.01,ENE,60,5.8,5.8,80,0.00,CLR,SKC,0.07,WeatherDisplay:10.37,2013-09-15 21:23:00,
2013-09-15 16:28:00,65.8,59.1,30.02,North,7,7.4,7.4,79,0.00,CLR,SKC,0.07,WeatherDisplay:10.37,2013-09-15 21:28:00,
2013-09-15 16:33:00,65.8,58.7,30.02,ENE,58,8.1,8.1,78,0.00,CLR,SKC,0.07,WeatherDisplay:10.37,2013-09-15 21:33:00,
2013-09-15 16:38:00,65.9,59.2,30.02,NE,37,3.5,3.5,79,0.00,CLR,SKC,0.07,WeatherDisplay:10.37,2013-09-15 21:38:00,
2013-09-15 16:43:00,66.0,58.9,30.02,North,352,4.6,4.6,78,0.00,CLR,SKC,0.07,WeatherDisplay:10.37,2013-09-15 21:43:00,
2013-09-15 16:48:00,65.9,58.8,30.02,NE,34,10.4,10.4,78,0.00,CLR,SKC,0.07,WeatherDisplay:10.37,2013-09-15 21:48:00,
2013-09-15 16:53:00,65.9,58.5,30.02,NNE,23,6.9,6.9,77,0.00,CLR,SKC,0.07,WeatherDisplay:10.37,2013-09-15 21:53:00,
2013-09-15 16:58:00,65.9,58.8,30.02,NW,325,6.9,6.9,78,0.00,CLR,SKC,0.07,WeatherDisplay:10.37,2013-09-15 21:58:00,
2013-09-15 17:03:00,65.9,58.5,30.03,NNE,25,7.4,7.4,77,0.00,,SKC,0.07,WeatherDisplay:10.37,2013-09-15 22:03:00,
2013-09-15 17:08:00,66.0,58.9,30.03,North,2,4.6,4.6,78,0.00,,SKC,0.07,WeatherDisplay:10.37,2013-09-15 22:08:00,
2013-09-15 17:13:00,66.1,58.3,30.03,ENE,58,5.8,5.8,76,0.00,,SKC,0.07,WeatherDisplay:10.37,2013-09-15 22:13:00,
2013-09-15 17:18:00,66.2,58.0,30.03,NNW,341,13.8,13.8,75,0.00,,SKC,0.07,WeatherDisplay:10.37,2013-09-15 22:18:00,
2013-09-15 17:23:00,66.2,58.0,30.04,NW,320,10.6,10.6,75,0.00,,SKC,0.07,WeatherDisplay:10.37,2013-09-15 22:23:00,
2013-09-15 17:28:00,66.3,58.1,30.04,NE,37,6.9,6.9,75,0.00,,SKC,0.07,WeatherDisplay:10.37,2013-09-15 22:28:00,
2013-09-15 17:33:00,66.4,58.2,30.04,North,354,9.2,9.2,75,0.00,,SKC,0.07,WeatherDisplay:10.37,2013-09-15 22:33:00,
2013-09-15 17:38:00,66.4,57.9,30.05,North,11,8.1,8.1,74,0.00,,SKC,0.07,WeatherDisplay:10.37,2013-09-15 22:38:00,
2013-09-15 17:43:00,66.4,58.2,30.05,NE,35,5.3,5.3,75,0.00,,SKC,0.07,WeatherDisplay:10.37,2013-09-15 22:43:00,
2013-09-15 17:48:00,66.4,58.2,30.05,North,359,6.9,6.9,75,0.00,,SKC,0.07,WeatherDisplay:10.37,2013-09-15 22:48:00,
2013-09-15 17:53:00,66.2,58.0,30.05,NE,56,13.8,13.8,75,0.00,,SKC,0.07,WeatherDisplay:10.37,2013-09-15 22:53:00,
2013-09-15 17:58:00,66.0,57.8,30.06,NNE,21,8.1,8.1,75,0.00,,SKC,0.07,WeatherDisplay:10.37,2013-09-15 22:58:00,
2013-09-15 18:03:00,65.8,58.0,30.06,North,355,9.2,9.2,76,0.00,CLR,SKC,0.07,WeatherDisplay:10.37,2013-09-15 23:03:00,
2013-09-15 18:08:00,65.7,57.6,30.06,North,4,10.6,10.6,75,0.00,CLR,SKC,0.07,WeatherDisplay:10.37,2013-09-15 23:08:00,
2013-09-15 18:13:00,65.6,57.5,30.06,NNE,29,12.7,12.7,75,0.00,CLR,SKC,0.07,WeatherDisplay:10.37,2013-09-15 23:13:00,
2013-09-15 18:18:00,65.4,57.3,30.06,North,351,9.5,9.5,75,0.00,CLR,SKC,0.07,WeatherDisplay:10.37,2013-09-15 23:18:00,
2013-09-15 18:23:00,65.3,57.2,30.06,NNE,22,5.3,5.3,75,0.00,CLR,SKC,0.07,WeatherDisplay:10.37,2013-09-15 23:23:00,
2013-09-15 18:28:00,65.2,57.1,30.06,NE,46,8.1,8.1,75,0.00,CLR,SKC,0.07,WeatherDisplay:10.37,2013-09-15 23:28:00,
2013-09-15 18:34:00,65.1,57.3,30.07,North,2,10.6,10.6,76,0.00,CLR,SKC,0.07,WeatherDisplay:10.37,2013-09-15 23:34:00,
2013-09-15 18:39:00,65.0,56.9,30.07,NE,44,10.6,10.6,75,0.00,CLR,SKC,0.07,WeatherDisplay:10.37,2013-09-15 23:39:00,
2013-09-15 18:44:00,65.0,57.2,30.07,West,277,5.3,5.3,76,0.00,CLR,SKC,0.07,WeatherDisplay:10.37,2013-09-15 23:44:00,
2013-09-15 18:49:00,64.9,57.2,30.08,North,353,6.9,6.9,76,0.00,CLR,SKC,0.07,WeatherDisplay:10.37,2013-09-15 23:49:00,
2013-09-15 18:54:00,64.7,57.0,30.08,NNW,328,10.6,10.6,76,0.00,CLR,SKC,0.07,WeatherDisplay:10.37,2013-09-15 23:54:00,
2013-09-15 18:59:00,64.6,57.2,30.08,North,11,7.4,7.4,77,0.00,CLR,SKC,0.07,WeatherDisplay:10.37,2013-09-15 23:59:00,
2013-09-15 19:04:00,64.3,57.3,30.08,NE,56,6.9,6.9,78,0.00,CLR,SKC,0.07,WeatherDisplay:10.37,2013-09-16 00:04:00,
2013-09-15 19:09:00,63.9,57.6,30.09,NNW,333,3.5,3.5,80,0.00,CLR,SKC,0.07,WeatherDisplay:10.37,2013-09-16 00:09:00,
2013-09-15 19:14:00,63.7,57.8,30.09,NNW,333,3.5,3.5,81,0.00,CLR,SKC,0.07,WeatherDisplay:10.37,2013-09-16 00:14:00,
2013-09-15 19:19:00,63.4,57.5,30.09,North,6,4.6,4.6,81,0.00,CLR,SKC,0.07,WeatherDisplay:10.37,2013-09-16 00:19:00,
2013-09-15 19:24:00,63.2,57.3,30.09,NE,45,6.9,6.9,81,0.00,CLR,SKC,0.07,WeatherDisplay:10.37,2013-09-16 00:24:00,
2013-09-15 19:29:00,63.2,57.3,30.09,ENE,66,4.2,4.2,81,0.00,CLR,SKC,0.07,WeatherDisplay:10.37,2013-09-16 00:29:00,
2013-09-15 19:34:00,63.1,57.5,30.09,ENE,58,3.5,3.5,82,0.00,CLR,SKC,0.07,WeatherDisplay:10.37,2013-09-16 00:34:00,
2013-09-15 19:39:00,63.0,57.4,30.09,ENE,63,3.2,3.2,82,0.00,CLR,SKC,0.07,WeatherDisplay:10.37,2013-09-16 00:39:00,
2013-09-15 19:44:00,62.9,57.3,30.09,NE,53,2.3,2.3,82,0.00,CLR,SKC,0.07,WeatherDisplay:10.37,2013-09-16 00:44:00,
2013-09-15 19:49:00,62.8,57.2,30.09,NE,48,2.3,2.3,82,0.00,CLR,SKC,0.07,WeatherDisplay:10.37,2013-09-16 00:49:00,
2013-09-15 19:54:00,62.8,57.2,30.10,ENE,64,3.5,3.5,82,0.00,CLR,SKC,0.07,WeatherDisplay:10.37,2013-09-16 00:54:00,
2013-09-15 19:59:00,62.7,57.5,30.10,NNE,15,1.2,0.0,83,0.00,CLR,SKC,0.07,WeatherDisplay:10.37,2013-09-16 00:59:00,
2013-09-15 20:04:00,62.7,57.5,30.10,NE,56,2.3,0.0,83,0.00,CLR,SKC,0.07,WeatherDisplay:10.37,2013-09-16 01:04:00,
2013-09-15 20:09:00,62.6,57.4,30.10,NNW,337,1.2,1.2,83,0.00,CLR,SKC,0.07,WeatherDisplay:10.37,2013-09-16 01:09:00,
2013-09-15 20:14:00,62.6,57.4,30.10,NNW,336,1.2,1.2,83,0.00,CLR,SKC,0.07,WeatherDisplay:10.37,2013-09-16 01:14:00,
2013-09-15 20:19:00,62.5,57.3,30.10,NW,322,1.2,1.2,83,0.00,CLR,SKC,0.07,WeatherDisplay:10.37,2013-09-16 01:19:00,
2013-09-15 20:24:00,62.4,57.2,30.10,NW,325,1.2,1.2,83,0.00,CLR,SKC,0.07,WeatherDisplay:10.37,2013-09-16 01:24:00,
2013-09-15 20:29:00,62.4,57.2,30.11,ENE,63,2.1,2.1,83,0.00,CLR,SKC,0.07,WeatherDisplay:10.37,2013-09-16 01:29:00,
2013-09-15 20:34:00,62.4,56.8,30.11,North,349,1.2,1.2,82,0.00,CLR,SKC,0.07,WeatherDisplay:10.37,2013-09-16 01:34:00,
2013-09-15 20:39:00,62.4,56.8,30.11,ESE,118,4.6,4.6,82,0.00,CLR,SKC,0.07,WeatherDisplay:10.37,2013-09-16 01:39:00,
2013-09-15 20:44:00,62.4,56.5,30.11,NNW,347,7.4,7.4,81,0.00,CLR,SKC,0.07,WeatherDisplay:10.37,2013-09-16 01:44:00,
2013-09-15 20:49:00,62.5,56.6,30.11,North,1,5.3,5.3,81,0.00,CLR,SKC,0.07,WeatherDisplay:10.37,2013-09-16 01:49:00,
2013-09-15 20:54:00,62.6,56.7,30.11,NW,324,4.6,4.6,81,0.00,CLR,SKC,0.07,WeatherDisplay:10.37,2013-09-16 01:54:00,
2013-09-15 20:59:00,62.6,56.7,30.12,NNE,30,5.3,5.3,81,0.00,CLR,SKC,0.07,WeatherDisplay:10.37,2013-09-16 01:59:00,
2013-09-15 21:04:00,62.6,56.3,30.11,NNE,18,6.9,6.9,80,0.00,CLR,SKC,0.07,WeatherDisplay:10.37,2013-09-16 02:04:00,
2013-09-15 21:09:00,62.4,56.1,30.12,North,358,4.6,4.6,80,0.00,CLR,SKC,0.07,WeatherDisplay:10.37,2013-09-16 02:09:00,
2013-09-15 21:14:00,62.3,56.0,30.12,NNE,17,5.3,5.3,80,0.00,CLR,SKC,0.07,WeatherDisplay:10.37,2013-09-16 02:14:00,
2013-09-15 21:19:00,62.3,56.0,30.12,NW,325,4.6,4.6,80,0.00,CLR,SKC,0.07,WeatherDisplay:10.37,2013-09-16 02:19:00,
2013-09-15 21:24:00,62.2,56.0,30.12,NE,53,3.5,3.5,80,0.00,CLR,SKC,0.07,WeatherDisplay:10.37,2013-09-16 02:24:00,
2013-09-15 21:29:00,62.2,56.0,30.12,NNW,334,3.5,3.5,80,0.00,CLR,SKC,0.07,WeatherDisplay:10.37,2013-09-16 02:29:00,
2013-09-15 21:34:00,62.2,56.0,30.12,NNE,17,5.8,5.8,80,0.00,CLR,SKC,0.07,WeatherDisplay:10.37,2013-09-16 02:34:00,
2013-09-15 21:39:00,62.2,56.0,30.12,NNW,328,6.9,6.9,80,0.00,CLR,SKC,0.07,WeatherDisplay:10.37,2013-09-16 02:39:00,
2013-09-15 21:44:00,62.2,56.0,30.12,NE,41,4.6,4.6,80,0.00,CLR,SKC,0.07,WeatherDisplay:10.37,2013-09-16 02:44:00,
2013-09-15 21:49:00,62.1,55.9,30.12,NE,53,3.2,3.2,80,0.00,CLR,SKC,0.07,WeatherDisplay:10.37,2013-09-16 02:49:00,
2013-09-15 21:54:00,62.1,55.9,30.13,NE,51,4.2,4.2,80,0.00,CLR,SKC,0.07,WeatherDisplay:10.37,2013-09-16 02:54:00,
2013-09-15 21:59:00,62.1,55.9,30.12,NNE,21,3.2,3.2,80,0.00,CLR,SKC,0.07,WeatherDisplay:10.37,2013-09-16 02:59:00,
2013-09-15 22:04:00,62.0,55.8,30.13,NNW,340,2.3,2.3,80,0.00,CLR,SKC,0.07,WeatherDisplay:10.37,2013-09-16 03:04:00,
2013-09-15 22:09:00,62.0,56.1,30.13,NW,326,3.5,3.5,81,0.00,CLR,SKC,0.07,WeatherDisplay:10.37,2013-09-16 03:09:00,
2013-09-15 22:14:00,62.0,56.1,30.13,NNE,30,6.4,6.4,81,0.00,CLR,SKC,0.07,WeatherDisplay:10.37,2013-09-16 03:14:00,
2013-09-15 22:19:00,61.9,56.0,30.13,NNW,344,3.5,3.5,81,0.00,CLR,SKC,0.07,WeatherDisplay:10.37,2013-09-16 03:19:00,
2013-09-15 22:24:00,61.8,55.9,30.13,West,272,3.5,0.0,81,0.00,CLR,SKC,0.07,WeatherDisplay:10.37,2013-09-16 03:24:00,
2013-09-15 22:29:00,61.6,55.7,30.13,North,349,3.5,3.5,81,0.00,CLR,SKC,0.07,WeatherDisplay:10.37,2013-09-16 03:29:00,
2013-09-15 22:34:00,61.7,56.1,30.13,North,1,3.5,3.5,82,0.00,CLR,SKC,0.07,WeatherDisplay:10.37,2013-09-16 03:34:00,
2013-09-15 22:39:00,61.6,56.0,30.13,NNW,340,6.9,6.9,82,0.00,CLR,SKC,0.07,WeatherDisplay:10.37,2013-09-16 03:39:00,
2013-09-15 22:44:00,61.6,56.0,30.13,East,79,5.8,5.8,82,0.00,CLR,SKC,0.07,WeatherDisplay:10.37,2013-09-16 03:44:00,
2013-09-15 22:49:00,61.6,56.0,30.13,NE,53,4.6,4.6,82,0.00,CLR,SKC,0.07,WeatherDisplay:10.37,2013-09-16 03:49:00,
2013-09-15 22:54:00,61.7,55.8,30.13,NE,51,8.1,8.1,81,0.00,CLR,SKC,0.07,WeatherDisplay:10.37,2013-09-16 03:54:00,
2013-09-15 22:59:00,61.8,55.9,30.14,NE,49,7.4,7.4,81,0.00,CLR,SKC,0.07,WeatherDisplay:10.37,2013-09-16 03:59:00,
2013-09-15 23:01:00,61.9,56.0,30.14,NE,38,7.4,7.4,81,0.00,CLR,SKC,0.07,WeatherDisplay:10.37,2013-09-16 04:01:00,
2013-09-15 23:02:00,61.9,55.7,30.14,ENE,57,9.5,9.5,80,0.00,,SKC,0.07,WeatherDisplay:10.37,2013-09-16 04:02:00,
2013-09-15 23:07:00,62.1,55.9,30.14,NNE,33,11.5,11.5,80,0.00,,SKC,0.07,WeatherDisplay:10.37,2013-09-16 04:07:00,
2013-09-15 23:12:00,62.2,55.6,30.15,NE,41,9.5,9.5,79,0.00,,SKC,0.07,WeatherDisplay:10.37,2013-09-16 04:12:00,
2013-09-15 23:17:00,62.2,55.6,30.15,ENE,73,8.5,8.5,79,0.00,,SKC,0.07,WeatherDisplay:10.37,2013-09-16 04:17:00,
2013-09-15 23:22:00,62.3,55.7,30.15,ENE,65,5.3,5.3,79,0.00,,SKC,0.07,WeatherDisplay:10.37,2013-09-16 04:22:00,
2013-09-15 23:27:00,62.3,55.4,30.15,NE,40,8.1,8.1,78,0.00,,SKC,0.07,WeatherDisplay:10.37,2013-09-16 04:27:00,
2013-09-15 23:32:00,62.3,55.4,30.15,ENE,65,8.1,8.1,78,0.00,,SKC,0.07,WeatherDisplay:10.37,2013-09-16 04:32:00,
2013-09-15 23:37:00,62.2,55.3,30.15,ENE,77,4.2,4.2,78,0.00,,SKC,0.07,WeatherDisplay:10.37,2013-09-16 04:37:00,
2013-09-15 23:42:00,62.2,55.3,30.15,NE,36,9.5,9.5,78,0.00,,SKC,0.07,WeatherDisplay:10.37,2013-09-16 04:42:00,
2013-09-15 23:47:00,62.3,55.4,30.15,ENE,61,10.6,10.6,78,0.00,,SKC,0.07,WeatherDisplay:10.37,2013-09-16 04:47:00,
2013-09-15 23:52:00,62.2,55.3,30.16,ENE,63,9.2,9.2,78,0.00,,SKC,0.07,WeatherDisplay:10.37,2013-09-16 04:52:00,
2013-09-15 23:57:00,62.2,55.3,30.16,NE,40,7.4,7.4,78,0.00,,SKC,0.07,WeatherDisplay:10.37,2013-09-16 04:57:00,